Tracking 19242 objects as of 15-Aug-2018
HD Live streaming from Space Station
objects crossing your sky now

NOAA 16 DEB

Track NOAA 16 DEB now!
10-day predictions


NORAD ID: 41276
Int'l Code: 2000-055GC
Perigee: 854.7 km
Apogee: 876.1 km
Inclination: 98.8 °
Period: 102.1 minutes
Semi major axis: 7236 km
RCS: Unknown
Launch date: September 21, 2000
Source: United States (US)
Launch site: AIR FORCE WESTERN TEST RANGE (AFWTR)

Note: This is SATELLITE DEBRIS
aabbcc
Your satellite tracking list
Your tracking list is empty




NASA's NSSDC Master Catalog

Two Line Element Set (TLE):
1 41276U 00055GC  18225.42421960 +.00000284 +00000-0 +18437-3 0  9996
2 41276 098.8428 293.1737 0014739 051.5263 308.7228 14.10327483136035
Source of the keplerian elements: AFSPC